Total_Precipitation_Accumulation
2.07 2.22 2.86 3.46 3.64 2.73 1.93 1.49 1.20 1.05 0.87 0.64 0.50 0.49 0.72 1.13 1.50 1.57 1.47 1.31 0.82 0.69 0.70 0.94 1.17 1.12 1.03 0.97 0.93 0.94 0.93 0.89 0.88 0.80 0.67 0.61 0.53 0.48 0.44 0.38 0.34 0.34 0.35 0.41 0.43 0.46 0.43 0.43 0.48
1.84 2.41 3.32 3.85 3.03 2.11 1.78 1.35 1.17 0.93 0.69 0.52 0.44 0.34 0.46 0.41 0.46 0.85 1.63 1.60 0.84 0.66 0.69 0.92 1.22 1.19 1.11 1.06 1.06 1.06 0.96 0.89 0.89 0.81 0.73 0.65 0.60 0.54 0.55 0.55 0.42 0.39 0.41 0.44 0.41 0.40 0.42 0.48 0.55
2.12 2.86 3.75 3.64 2.43 1.87 1.80 1.28 0.94 0.64 0.45 0.47 0.47 0.37 0.46 0.57 0.73 1.17 1.55 1.14 0.78 0.68 0.69 1.00 1.29 1.20 1.11 1.13 1.22 1.20 1.10 0.98 0.89 0.84 0.80 0.74 0.68 0.67 0.72 0.64 0.55 0.53 0.53 0.54 0.55 0.51 0.51 0.58 0.63
2.31 3.22 3.41 2.74 2.09 1.63 1.36 1.11 0.81 0.64 0.43 0.28 0.33 0.45 0.41 0.60 0.81 1.06 1.01 0.72 0.56 0.56 0.59 0.92 1.32 1.22 1.12 1.13 1.26 1.19 1.07 1.05 0.96 0.92 0.89 0.86 0.82 0.82 0.82 0.74 0.71 0.65 0.63 0.63 0.64 0.62 0.62 0.65 0.66
2.46 3.14 3.03 2.62 1.93 1.66 1.21 0.96 0.80 0.73 0.54 0.35 0.30 0.52 0.56 0.83 0.89 0.90 0.84 0.69 0.57 0.56 0.56 0.79 1.19 1.18 1.06 1.06 1.14 1.11 1.06 1.09 0.98 0.92 0.93 0.92 0.91 0.92 0.98 0.92 0.82 0.80 0.77 0.76 0.74 0.69 0.62 0.63 0.68
2.83 2.83 2.85 2.72 2.13 1.84 1.44 1.07 0.77 0.70 0.57 0.42 0.35 0.55 0.72 1.00 0.98 0.95 0.86 0.84 0.77 0.69 0.57 0.66 0.99 1.04 0.99 1.02 1.07 1.08 1.03 0.98 0.87 0.88 0.92 0.93 0.92 0.98 1.02 1.00 0.92 0.88 0.86 0.87 0.86 0.82 0.72 0.70 0.71
2.62 2.53 2.26 1.93 2.04 2.16 1.54 0.96 0.87 0.84 0.75 0.66 0.42 0.63 0.85 1.04 0.90 0.76 0.82 0.99 1.11 1.03 0.86 0.76 0.78 0.81 0.87 0.97 1.00 1.14 1.16 0.98 0.85 0.83 0.82 0.81 0.82 0.85 0.92 0.94 0.89 0.85 0.89 0.88 0.88 0.87 0.83 0.82 0.79
2.20 2.18 1.94 1.87 2.11 2.24 1.35 0.84 0.68 0.67 0.66 0.44 0.35 0.55 0.71 0.81 0.80 0.78 0.86 1.00 1.02 1.01 0.97 0.91 0.90 0.86 0.84 0.86 1.02 1.29 1.40 1.22 0.97 0.86 0.81 0.81 0.75 0.74 0.81 0.79 0.81 0.85 0.93 0.96 0.98 0.96 0.89 0.94 0.94
1.93 2.17 2.16 2.10 2.06 1.79 1.09 0.78 0.57 0.39 0.39 0.35 0.27 0.41 0.55 0.54 0.63 0.76 0.89 0.98 0.96 0.91 0.91 0.87 0.88 0.92 1.03 1.03 1.09 1.35 1.51 1.47 1.11 0.91 0.89 0.79 0.62 0.74 0.78 0.66 0.83 0.93 1.03 1.04 1.07 1.03 0.97 1.01 0.99
1.98 2.12 1.98 1.63 1.45 1.17 0.90 0.73 0.56 0.52 0.52 0.45 0.34 0.43 0.53 0.55 0.58 0.65 0.71 0.73 0.75 0.75 0.74 0.74 0.76 0.75 0.81 0.87 1.19 1.40 1.32 1.39 1.11 1.06 0.98 0.88 0.90 0.93 0.79 0.70 0.84 1.00 1.11 1.09 1.08 1.10 1.05 0.94 0.78
1.70 1.77 1.45 1.27 1.09 0.88 0.78 0.70 0.52 0.59 0.61 0.45 0.37 0.42 0.49 0.54 0.59 0.58 0.56 0.56 0.57 0.59 0.52 0.48 0.53 0.53 0.58 0.68 0.85 1.14 1.40 1.44 1.41 1.34 1.25 1.17 1.07 0.89 0.78 0.76 0.77 0.87 0.97 0.94 1.02 1.01 0.88 0.81 0.77
1.49 1.40 1.22 1.10 0.82 0.86 0.82 0.64 0.54 0.48 0.44 0.32 0.33 0.36 0.41 0.53 0.61 0.57 0.53 0.51 0.53 0.58 0.58 0.48 0.42 0.46 0.46 0.50 0.64 0.89 1.11 1.26 1.28 1.19 1.10 1.28 1.21 0.97 0.87 0.93 0.94 0.91 0.96 1.09 1.13 1.06 0.96 0.87 0.79
1.37 1.42 1.14 0.92 0.82 0.86 0.77 0.64 0.54 0.49 0.37 0.29 0.30 0.40 0.50 0.61 0.65 0.59 0.52 0.51 0.54 0.57 0.62 0.56 0.43 0.37 0.42 0.45 0.51 0.60 0.84 1.00 1.00 1.13 1.09 1.13 1.11 0.98 0.90 0.90 1.04 0.99 1.00 1.13 1.23 1.09 0.99 1.00 0.97
1.20 1.16 1.09 0.93 0.86 0.87 0.85 0.65 0.54 0.56 0.43 0.39 0.43 0.51 0.55 0.63 0.62 0.58 0.53 0.51 0.50 0.51 0.53 0.54 0.49 0.47 0.46 0.44 0.44 0.49 0.54 0.71 0.74 0.75 0.74 0.94 1.04 1.02 1.04 0.93 1.02 1.16 1.18 1.16 1.15 1.13 1.03 0.99 1.03
0.99 1.04 1.15 1.05 1.00 0.97 0.85 0.84 0.62 0.53 0.47 0.42 0.45 0.48 0.54 0.59 0.58 0.56 0.50 0.44 0.43 0.44 0.44 0.48 0.54 0.59 0.57 0.57 0.57 0.54 0.55 0.58 0.65 0.72 0.73 0.86 0.96 1.03 1.05 0.92 0.96 1.10 1.28 1.25 1.19 1.13 1.09 0.95 0.90
1.11 1.34 1.53 1.26 1.09 1.06 0.96 0.97 0.67 0.60 0.54 0.44 0.40 0.39 0.41 0.42 0.44 0.47 0.43 0.37 0.36 0.34 0.33 0.39 0.45 0.52 0.58 0.62 0.66 0.62 0.66 0.67 0.65 0.70 0.68 0.73 0.88 1.04 1.12 1.04 0.99 1.14 1.31 1.47 1.51 1.33 1.24 1.11 1.04
1.37 1.45 1.35 1.26 1.02 1.02 0.93 0.86 0.72 0.57 0.50 0.41 0.36 0.37 0.37 0.34 0.33 0.35 0.33 0.30 0.29 0.28 0.26 0.29 0.34 0.41 0.48 0.57 0.65 0.67 0.69 0.83 0.91 0.79 0.65 0.72 0.86 0.96 1.17 1.25 1.20 1.23 1.38 1.44 1.45 1.45 1.32 1.29 1.24
1.09 1.10 1.06 1.11 0.93 0.82 0.75 0.67 0.68 0.51 0.35 0.32 0.30 0.30 0.32 0.31 0.27 0.27 0.26 0.23 0.24 0.24 0.23 0.25 0.31 0.33 0.36 0.47 0.64 0.73 0.70 0.80 1.01 1.05 1.02 1.05 1.12 1.18 1.34 1.43 1.42 1.42 1.47 1.45 1.57 1.74 1.53 1.36 1.37
0.85 0.85 0.84 0.75 0.65 0.67 0.61 0.57 0.60 0.51 0.38 0.30 0.25 0.25 0.25 0.25 0.24 0.22 0.19 0.18 0.19 0.18 0.19 0.24 0.29 0.32 0.34 0.42 0.53 0.62 0.72 0.90 1.11 1.17 1.22 1.36 1.38 1.40 1.55 1.65 1.68 1.61 1.52 1.57 1.75 2.09 1.98 1.62 1.45
0.78 0.73 0.76 0.66 0.56 0.55 0.56 0.56 0.55 0.46 0.37 0.27 0.24 0.20 0.18 0.20 0.19 0.15 0.14 0.14 0.13 0.11 0.12 0.18 0.27 0.36 0.42 0.48 0.62 0.77 1.00 1.11 1.26 1.41 1.39 1.42 1.47 1.50 1.58 1.79 1.90 1.84 1.81 1.91 1.93 2.14 2.28 2.02 1.81
0.76 0.67 0.60 0.59 0.56 0.54 0.52 0.62 0.58 0.49 0.36 0.27 0.24 0.20 0.17 0.19 0.17 0.12 0.11 0.11 0.11 0.09 0.11 0.18 0.32 0.51 0.72 0.82 1.05 1.33 1.58 1.66 1.59 1.58 1.62 1.61 1.64 1.70 1.68 1.80 2.00 1.96 1.91 1.95 2.13 2.38 2.64 2.57 2.33
0.73 0.51 0.43 0.49 0.55 0.61 0.47 0.61 0.52 0.46 0.43 0.32 0.27 0.24 0.20 0.22 0.23 0.17 0.15 0.13 0.12 0.13 0.23 0.38 0.62 0.92 1.17 1.32 1.52 1.72 1.83 1.87 1.80 1.82 1.80 1.78 1.70 1.63 1.63 1.75 1.95 2.09 2.16 2.21 2.27 2.28 2.58 2.78 2.62
0.59 0.47 0.43 0.47 0.51 0.50 0.40 0.45 0.41 0.39 0.46 0.41 0.37 0.34 0.33 0.32 0.27 0.27 0.28 0.27 0.32 0.42 0.61 0.89 1.15 1.39 1.53 1.58 1.68 1.88 2.04 2.19 2.20 2.09 1.94 1.82 1.79 1.72 1.63 1.68 1.76 1.80 1.87 1.99 2.12 2.20 2.40 2.53 2.67
0.47 0.51 0.53 0.51 0.53 0.57 0.39 0.34 0.40 0.37 0.41 0.44 0.46 0.40 0.37 0.34 0.34 0.42 0.53 0.63 0.76 0.86 1.03 1.24 1.39 1.53 1.52 1.52 1.58 1.71 1.90 2.06 2.08 2.10 2.07 1.93 1.79 1.69 1.59 1.55 1.65 1.68 1.68 1.79 1.91 2.01 2.23 2.39 2.52
0.50 0.60 0.73 0.71 0.66 0.56 0.33 0.39 0.40 0.31 0.32 0.38 0.42 0.41 0.39 0.37 0.45 0.62 0.78 0.92 1.02 1.13 1.23 1.26 1.25 1.29 1.30 1.32 1.36 1.44 1.50 1.54 1.60 1.70 1.63 1.50 1.37 1.31 1.31 1.24 1.31 1.44 1.49 1.66 1.74 1.68 1.73 1.89 2.10
0.45 0.45 0.61 0.68 0.58 0.48 0.37 0.51 0.46 0.34 0.30 0.30 0.33 0.39 0.48 0.60 0.71 0.82 0.92 1.01 1.05 1.18 1.23 1.18 1.15 1.13 1.06 1.00 1.06 1.07 1.12 1.17 1.20 1.22 1.18 1.09 1.04 1.01 0.97 0.97 0.98 1.05 1.13 1.34 1.56 1.54 1.55 1.61 1.70
0.38 0.36 0.38 0.51 0.46 0.46 0.43 0.54 0.49 0.33 0.27 0.27 0.29 0.37 0.51 0.72 0.97 1.13 1.12 1.02 0.93 0.97 1.05 1.03 0.98 0.93 0.85 0.79 0.82 0.85 0.92 0.95 0.93 0.91 0.86 0.84 0.78 0.79 0.76 0.78 0.86 0.92 0.92 1.02 1.15 1.33 1.41 1.47 1.55
0.29 0.31 0.39 0.56 0.60 0.59 0.51 0.58 0.50 0.36 0.32 0.29 0.34 0.43 0.61 0.82 1.03 1.30 1.43 1.30 1.02 0.83 0.85 0.82 0.78 0.81 0.80 0.76 0.77 0.77 0.70 0.65 0.66 0.69 0.63 0.62 0.67 0.71 0.70 0.67 0.68 0.74 0.77 0.87 0.98 1.04 1.14 1.21 1.37
0.29 0.32 0.39 0.51 0.50 0.65 0.84 0.85 0.65 0.54 0.49 0.47 0.51 0.56 0.62 0.90 1.19 1.34 1.39 1.25 1.07 0.79 0.72 0.71 0.67 0.71 0.77 0.71 0.72 0.72 0.61 0.49 0.47 0.47 0.45 0.45 0.49 0.55 0.56 0.59 0.65 0.65 0.67 0.69 0.70 0.75 0.81 0.88 0.99
0.28 0.34 0.45 0.64 0.64 0.59 0.73 0.80 0.56 0.59 0.67 0.60 0.64 0.73 0.74 0.79 0.84 0.87 0.98 1.00 0.93 0.79 0.72 0.78 0.82 0.81 0.73 0.66 0.62 0.58 0.51 0.44 0.43 0.41 0.38 0.40 0.45 0.47 0.49 0.54 0.58 0.58 0.64 0.66 0.66 0.66 0.68 0.77 0.85